Regional Weather Roundup
Issued by NWS

Home | Current Version | Previous Version | Text Only | Print | Product List | Glossary Off
Versions: 1 2 3 4 5 6 7 8 9 10 11 12 13 14 15 16 17 18 19 20 21 22 23 24 25 26 27 28 29 30 31 32 33 34 35 36 37 38 39 40 41 42 43 44 45 46 47 48 49 50

000
ASUS43 KMKX 250800
RWRWI

WISCONSIN REGIONAL WEATHER ROUNDUP
NATIONAL WEATHER SERVICE MILWAUKEE/SULLIVAN WI
200 AM CST SUN JAN 25 2015

NOTE: "FAIR" INDICATES FEW OR NO CLOUDS BELOW 12,000 FEET WITH NO
SIGNIFICANT WEATHER AND/OR OBSTRUCTIONS TO VISIBILITY.

WIZ001-002-006>008-014>016-023>028-250900-
NORTHWEST WISCONSIN

CITY           SKY/WX    TMP DP  RH WIND       PRES   REMARKS
SUPERIOR ARPT  CLOUDY    22  14  72 NE13G25   29.89R WCI  10
ASHLAND        CLOUDY    20  13  74 E8        29.90R WCI  10
HAYWARD        MOCLDY    17  10  74 E10       29.84R WCI   5
SIREN          CLOUDY    23  15  73 E10G18    29.82R WCI  12
CUMBERLAND     CLOUDY    27  19  74 NE10      29.77R WCI  17
RICE LAKE      CLOUDY    27  20  75 N16       29.78R WCI  14
CHETEK         CLOUDY    27  19  72 NE12G17   29.77R WCI  17
LADYSMITH      CLOUDY    24  18  78 NE12      29.79R WCI  13
EAU CLAIRE     NOT AVBL
MENOMONIE      CLOUDY    32  24  72 N16G23    29.73R WCI  21
NEW RICHMOND   CLOUDY    30  25  81 NE14G21   29.75R WCI  20
OSCEOLA        CLOUDY    30  24  78 NE15      29.79R WCI  19
$$

WIZ003>005-009-010-017-018-250900-
NORTH CENTRAL WISCONSIN

CITY           SKY/WX    TMP DP  RH WIND       PRES   REMARKS
MANITOWISH WTR CLOUDY    13   8  79 NE6       29.81R WCI   4
ARBOR VITAE    CLOUDY    17  10  76 NE9       29.81R WCI   5
WOODRUFF       CLOUDY    17  10  76 NE9       29.81R WCI   5
RHINELANDER    CLOUDY    14   7  73 NE8       29.81R WCI   3
EAGLE RIVER    CLOUDY    14   6  73 NE9       29.79S WCI   1
LAND O LAKES   PTCLDY    13   9  83 NE5       29.81S WCI   5
PHILLIPS       CLOUDY    17  13  82 NE13      29.78R WCI   4
TOMAHAWK       CLOUDY    18  12  79 NE10G16   29.79R WCI   6
MEDFORD        CLOUDY    24  18  79 NE14      29.74R WCI  11
MERRILL        CLOUDY    23  17  77 NE12      29.77R WCI  11
$$

WIZ029-030-035-036-043>047-250900-
CENTRAL WISCONSIN

CITY           SKY/WX    TMP DP  RH WIND       PRES   REMARKS
WAUSAU         CLOUDY    25  18  74 E13       29.76R WCI  14
MOSINEE        CLOUDY    28  25  86 E14       29.75R WCI  17
MARSHFIELD     CLOUDY    30  24  78 E12       29.74R WCI  20
STEVENS POINT  CLOUDY    25  21  85 E12G17    29.76R WCI  14
WAUPACA        CLOUDY    26  19  74 E9G17     29.78R WCI  16
WAUTOMA        NOT AVBL
WISC RAPIDS    CLOUDY    26  21  81 E13       29.77R WCI  15
CAMP DOUGLAS   MIX PCPN  32  32 100 E10G22    29.71R WCI  24
$$

WIZ011>013-019>022-031-037>040-048>050-250900-
NORTHEAST WISCONSIN

CITY           SKY/WX    TMP DP  RH WIND       PRES   REMARKS
ANTIGO         CLOUDY    19  14  82 NE14      29.78R WCI   5
SHAWANO        CLOUDY    23  14  69 NE14G22   29.83R WCI  10
OCONTO         CLOUDY    21  12  69 NE8       29.84R WCI  11
STURGEON BAY   CLOUDY    19  12  73 NE15G24   29.85R WCI   5
GREEN BAY      CLOUDY    22  15  75 NE20G28   29.82R WCI   7
MANITOWOC      NOT AVBL
APPLETON       CLOUDY    23  14  68 NE16G26   29.78R WCI  10
CLINTONVILLE   CLOUDY    23  14  68 NE15G23   29.80R WCI  10
OSHKOSH        CLOUDY    24  16  71 NE14      29.78R WCI  12
$$

WIZ032>034-041-042-053>061-250900-
SOUTHWEST WISCONSIN

CITY           SKY/WX    TMP DP  RH WIND       PRES   REMARKS
LA CROSSE      CLOUDY    37  30  75 CALM      29.68R
SPARTA         CLOUDY    34  30  88 E9G17     29.69R WCI  26
VIROQUA        CLOUDY    33  32  97 E12       29.63R WCI  24
BOSCOBEL       CLOUDY    35  30  82 NE3       29.66R
PRAIRIE DU CHI CLOUDY    35  31  83 E7        29.63R WCI  30
PLATTEVILLE    CLOUDY    33  32  96 NE14      29.63R WCI  23
$$

WIZ056-057-062-063-064-067-068-250900-
SOUTH CENTRAL WISCONSIN

CITY           SKY/WX    TMP DP  RH WIND       PRES   REMARKS
REEDSBURG      CLOUDY    32  30  94 E9G16     29.67R WCI  24
BARABOO/DELLS  CLOUDY    31  29  93 NE13      29.67S FOG     WCI  22
LONE ROCK      NOT AVBL
MINERAL POINT  CLOUDY    34  32  93 E12       29.63R WCI  25
MADISON        CLOUDY    32  28  85 E18       29.68R WCI  20
MIDDLETON      CLOUDY    33  32  96 E7        29.67R WCI  27
WATERTOWN      CLOUDY    30  28  90 NE10G21   29.70R WCI  21
MONROE         CLOUDY    32  32 100 NE8       29.64R WCI  25
JANESVILLE     CLOUDY    32  32 100 E9        29.66S WCI  24
$$

WIZ051-052-058>065-066-070>072-250900-
SOUTHEAST WISCONSIN

CITY           SKY/WX    TMP DP  RH WIND       PRES   REMARKS
MILWAUKEE      CLOUDY    31  26  82 NE15G25   29.72R WCI  20
WAUKESHA       CLOUDY    28  27  93 NE13G22   29.71R WCI  18
MILWAUKEE/TIMM CLOUDY    30  27  86 NE14G23   29.73R WCI  20
RACINE         CLOUDY    32  28  85 NE18      29.73R WCI  20
BURLINGTON     CLOUDY    30  29  94 NE10      29.70R WCI  21
KENOSHA        CLOUDY    32  30  92 NE14      29.70R WCI  22
FOND DU LAC    CLOUDY    26  19  74 NE14G24   29.77R WCI  14
SHEBOYGAN      CLOUDY    27  21  78 NE20      29.76R WCI  13
WEST BEND      CLOUDY    28  23  80 NE14      29.73R WCI  17
JUNEAU         CLOUDY    28  24  85 NE12      29.73R WCI  18
$$

LSZ147-162-250900-
LAKE SUPERIOR

STATION/POSITION TIME  TEMP    WIND        PRES    WAVE
                       AIR SEA DIR/SP/G            HT/PER
                 (UTC) (F)     (DEG/KT/KT) (MB)    (FT/S)
DEVILS ISLAND    0700   19      50/ 17/ 21 1014.3R
PORT WING        0700   21      80/  7/ 12 1012.9
SAXON HARBOR     0740   18     140/  1/  7 1012.9R
$$

LMZ867-665-643>646-250900-
LAKE MICHIGAN

STATION/POSITION TIME  TEMP    WIND        PRES    WAVE
                       AIR SEA DIR/SP/G            HT/PER
                 (UTC) (F)     (DEG/KT/KT) (MB)    (FT/S)
NORTHPORT PIER   0703   21      10/ 13/ 17 1010.5R
SISTER BAY       0713   20      30/  8/ 11   N/A
KEWAUNEE LAKESHO 0700   22      10/  8/ 17 1008.2R
SHEBOYGAN LAKESH 0700   29      20/ 25/ 27 1007.9R
PORT WASHINGTON  0715   31      40/ 18/ 25 1007.5R
MILWAUKEE LAKESH 0700   31      30/ 22/ 26   N/A
KENOSHA   LAKESH 0700   34      20/ 17/ 18 1005.1S
$$

TC  - TEMPERATURE IN CELSIUS
VSB - VISIBILITY IN STATUTE MILES
WCI - WIND CHILL INDEX
HX  - HEAT INDEX




USA.gov is the U.S. government's official web portal to all federal, state and local government web resources and services.